[[{"header":{"parameterUnit":"m.s-1","parameterCategory":1,"la1":30.2991,"la2":30.254,"lo1":-89.0895,"lo2":-89.0444,"dy":0.0017,"dx":0.0017,"nx":28,"ny":28,"refTime":"2025-07-03T09:00:00:Z","depth":0,"parameterNumber":2,"parameterNumberName":"U-component_of_WINDS"},"data":[0,0,0,0,0,0,0,0,0,0,0,0,0,0,0,0,0,0,0,0,0,0,0,0,0,0,0,0,0,0,0,0,0,0,0,0,0,0,0,0,0,0,0,0,0,0,0,0,0,0,0,0,0,0,0,0,0,0,0.67,0.67,0,0.6761,0.6762,0.6762,0.675,0.6749,0.6748,0.6746,0.6811,0.6814,0.6816,0,0,0,0,0,0,0,0,0,0,0,0,0,0.6573,0.6576,0.6699,0.67,0.6701,0.6761,0.6762,0.6763,0.675,0.6749,0.6747,0.6746,0.681,0.6813,0.6817,0,0,0,0,0,0,0,0,0,0,0,0,0,0.6631,0.6576,0.6699,0.6702,0.6703,0.6761,0.6762,0.6763,0.675,0.6749,0.6747,0.6745,0.6809,0.6813,0.6817,0.6877,0,0,0.683,0.6831,0,0,0,0,0,0,0,0,0.6628,0.6635,0.6701,0.6702,0.6703,0.6746,0.6741,0.6801,0.6751,0.6732,0.6746,0.6744,0.6791,0.6796,0.6812,0.688,0.6882,0.683,0.6833,0.6834,0.6836,0,0,0,0,0,0,0,0.6624,0.6633,0.6724,0.6702,0.6703,0.6701,0.6707,0.6752,0.677,0.6734,0.6733,0.674,0.6791,0.6808,0.6813,0.6883,0.683,0.6834,0.6836,0.6838,0.7006,0.7008,0,0,0,0,0,0,0.6618,0.663,0.6722,0.6726,0.666,0.6704,0.6711,0.6734,0.677,0.6774,0.6742,0.674,0.6801,0.6808,0.6815,0.6889,0.6834,0.6838,0.6841,0.7004,0.7007,0.7009,0,0,0,0,0,0,0.6616,0.6627,0.6719,0.6677,0.6689,0.6708,0.6734,0.6736,0.6753,0.6776,0.6779,0.6755,0.68,0.6809,0.6862,0.6891,0.684,0.6844,0.7002,0.7005,0.7008,0.7037,0,0,0,0,0,0,0.6612,0.6626,0.6648,0.6678,0.6691,0.6765,0.6735,0.6738,0.676,0.6757,0.6789,0.6793,0.68,0.6856,0.6866,0.6896,0.6847,0.6999,0.7003,0.7007,0.7034,0.7041,0.7047,0,0,0,0,0,0.6608,0.6654,0.6649,0.6661,0.6719,0.6766,0.6774,0.678,0.6762,0.6785,0.68,0.6792,0.6886,0.6861,0.6873,0.6905,0.6998,0.7002,0.7007,0.7031,0.7039,0.7047,0,0,0,0,0,0,0.6627,0.6658,0.6653,0.671,0.6736,0.6764,0.6793,0.6789,0.682,0.6817,0.6823,0.6831,0.6885,0.69,0.6871,0.6966,0.694,0.6946,0.6954,0.6962,0.6969,0.6965,0.6851,0,0,0,0,0,0.6637,0.6672,0.6697,0.6745,0.6758,0.6774,0.6794,0.6797,0.6824,0.6835,0.6854,0.6881,0.6917,0.694,0.6974,0.7035,0.7043,0.7063,0.707,0.7075,0.7081,0.7117,0.7127,0.7023,0.7023,0.7023,0,0,0.666,0.6681,0.6703,0.675,0.677,0.6807,0.6783,0.6822,0.685,0.6841,0.6892,0.6907,0.6938,0.6996,0.7022,0.701,0.7112,0.7081,0.7085,0.7088,0.7123,0.7133,0.7141,0.7026,0.7026,0.7025,0,0,0.6721,0.6739,0.6782,0.6803,0.6834,0.6844,0.6855,0.6884,0.6894,0.6945,0.694,0.6973,0.7034,0.7057,0.7077,0.7148,0.7142,0.7158,0.7193,0.7228,0.7236,0.7244,0.7271,0.7281,0.7164,0.7165,0.7165,0,0.6745,0.68,0.6805,0.6846,0.6868,0.6861,0.6905,0.6925,0.6966,0.6982,0.6967,0.7045,0.7065,0.7129,0.7147,0.7162,0.7175,0.7155,0.7235,0.7242,0.7249,0.7275,0.7285,0.7167,0.7166,0.7166,0.7166,0,0.683,0.6868,0.6899,0.6939,0.6964,0.7006,0.7019,0.7044,0.7044,0.7056,0.711,0.7134,0.7174,0.7189,0.719,0.7254,0.7246,0.7233,0.7207,0.7261,0.7286,0.7296,0.7169,0.7169,0.7168,0.7168,0,0,0.6904,0.6947,0.6958,0.6977,0.7012,0.7042,0.7085,0.7124,0.7146,0.7174,0.7212,0.7264,0.7253,0.7275,0.7279,0.7309,0.7367,0.7293,0.7294,0.7307,0.7442,0.7452,0.7464,0.7363,0.7364,0.7366,0.744,0,0.6969,0.7044,0.7051,0.7119,0.7156,0.715,0.7188,0.7214,0.7226,0.726,0.7274,0.7312,0.7293,0.7307,0.7337,0.7353,0.7394,0.7348,0.7399,0.7401,0.7393,0.7476,0.7488,0.7556,0.7449,0.7451,0.7452,0,0.7055,0.7087,0.7159,0.719,0.7205,0.7239,0.7276,0.7308,0.7338,0.7345,0.7371,0.7371,0.7416,0.7388,0.7452,0.7421,0.7442,0.7453,0.7456,0.7462,0.7431,0.7487,0.7578,0.7589,0.7467,0.7466,0.7465,0,0.7105,0.7165,0.7217,0.7233,0.727,0.7294,0.731,0.7338,0.7362,0.7395,0.7411,0.7448,0.7469,0.7499,0.751,0.7488,0.7574,0.7546,0.7583,0.7583,0.7602,0.7601,0.77,0.7613,0.7613,0.7613,0.7612,0,0.7178,0.7222,0.724,0.7271,0.7322,0.7329,0.738,0.7395,0.742,0.7456,0.7453,0.7487,0.7498,0.7534,0.7543,0.7596,0.7605,0.7613,0.7615,0.7614,0.7614,0.763,0.7626,0.7615,0.7615,0.7614,0.7614,0,0.7242,0.7255,0.7311,0.7342,0.7351,0.7387,0.7414,0.7445,0.7457,0.7503,0.7514,0.7534,0.7576,0.7589,0.764,0.7646,0.7709,0.7706,0.7699,0.77,0.7737,0.7734,0.785,0.7867,0.7768,0.7769,0.7769,0,0.7288,0.7323,0.7358,0.7381,0.7399,0.7437,0.7462,0.7471,0.7496,0.7534,0.7561,0.7603,0.7638,0.7706,0.7726,0.7765,0.7764,0.7802,0.777,0.7769,0.7768,0.7766,0.7771,0.7809,0.781,0.7811,0.7812,0,0.737,0.7375,0.741,0.7449,0.7478,0.7509,0.7538,0.7558,0.7571,0.7601,0.7644,0.7671,0.7724,0.7766,0.7807,0.7825,0.7822,0.7821,0.7832,0.7833,0.7828,0.7834,0.7718,0.7819,0.7818,0.7818,0.7817,0.7817,0.7428,0.746,0.749,0.753,0.7553,0.7581,0.7612,0.7629,0.7665,0.7709,0.7712,0.776,0.7791,0.7845,0.7866,0.7904,0.7893,0.7908,0.7913,0.7917,0.7921,0.7821,0.7911,0.7911,0.7911,0.7911,0.791,0,0.7512,0.7531,0.7568,0.7609,0.7641,0.7635,0.7667,0.7695,0.7737,0.7766,0.78,0.7851,0.7893,0.7916,0.7958,0.7984,0.7984,0.7995,0.7994,0.7999,0.7927,0.7914,0.7995,0.7995,0.7995,0.7995,0.7995,0.7995,0.7559,0.7613,0.7622,0.7687,0.7706,0.7753,0.7772,0.7799,0.7822,0.788,0.7914,0.7929,0.7957,0.8001,0.8039,0.8045,0.8062,0.8075,0.808,0.8012,0.8004,0.7996,0.7984,0.8078,0.8078,0.8149,0.815,0.815]},{"header":{"parameterUnit":"m.s-1","parameterCategory":1,"la1":30.2991,"la2":30.254,"lo1":-89.0895,"lo2":-89.0444,"dy":0.0017,"dx":0.0017,"nx":28,"ny":28,"refTime":"2025-07-03T09:00:00:Z","depth":0,"parameterNumber":3,"parameterNumberName":"V-component_of_WINDS"},"data":[0,0,0,0,0,0,0,0,0,0,0,0,0,0,0,0,0,0,0,0,0,0,0,0,0,0,0,0,0,0,0,0,0,0,0,0,0,0,0,0,0,0,0,0,0,0,0,0,0,0,0,0,0,0,0,0,0,0,-0.9306,-0.9307,0,-0.9323,-0.9323,-0.9323,-0.936,-0.9361,-0.9361,-0.9362,-0.9377,-0.9377,-0.9377,0,0,0,0,0,0,0,0,0,0,0,0,0,-0.9306,-0.9306,-0.9306,-0.9307,-0.9307,-0.9323,-0.9323,-0.9323,-0.936,-0.9361,-0.9362,-0.9363,-0.9377,-0.9377,-0.9377,0,0,0,0,0,0,0,0,0,0,0,0,0,-0.9312,-0.9306,-0.9306,-0.9327,-0.9329,-0.9323,-0.9323,-0.9323,-0.936,-0.9361,-0.9362,-0.9363,-0.9377,-0.9377,-0.9377,-0.9351,0,0,-0.9375,-0.9375,0,0,0,0,0,0,0,0,-0.9312,-0.9312,-0.9324,-0.9326,-0.9328,-0.9341,-0.9328,-0.9332,-0.9359,-0.9348,-0.9362,-0.9364,-0.9364,-0.9365,-0.9365,-0.9352,-0.9352,-0.9375,-0.9375,-0.9375,-0.9374,0,0,0,0,0,0,0,-0.9312,-0.9312,-0.9313,-0.9324,-0.9326,-0.9335,-0.9337,-0.9329,-0.9349,-0.9349,-0.9352,-0.9353,-0.9365,-0.9366,-0.9366,-0.9352,-0.9375,-0.9375,-0.9374,-0.9374,-0.9318,-0.9317,0,0,0,0,0,0,-0.9308,-0.9311,-0.9312,-0.9313,-0.9323,-0.9334,-0.9337,-0.9335,-0.935,-0.9353,-0.9352,-0.9355,-0.9366,-0.9366,-0.9366,-0.9337,-0.9375,-0.9374,-0.9374,-0.9319,-0.9318,-0.9316,0,0,0,0,0,0,-0.9308,-0.9308,-0.9312,-0.9313,-0.9314,-0.9333,-0.9331,-0.9335,-0.9335,-0.9352,-0.9356,-0.9349,-0.9367,-0.9367,-0.9354,-0.9338,-0.9374,-0.9374,-0.9321,-0.9319,-0.9317,-0.9277,0,0,0,0,0,0,-0.9308,-0.9308,-0.9298,-0.9313,-0.9314,-0.93,-0.933,-0.9335,-0.9335,-0.9338,-0.935,-0.9353,-0.9368,-0.9355,-0.9354,-0.9338,-0.9373,-0.9322,-0.932,-0.9318,-0.928,-0.9274,-0.9269,0,0,0,0,0,-0.9308,-0.9286,-0.9298,-0.9298,-0.9303,-0.9299,-0.9299,-0.9317,-0.9333,-0.9324,-0.9334,-0.9352,-0.934,-0.9353,-0.9353,-0.9336,-0.9323,-0.9321,-0.9318,-0.9282,-0.9275,-0.9269,0,0,0,0,0,0,-0.9268,-0.9288,-0.9301,-0.9284,-0.9289,-0.9305,-0.9293,-0.9309,-0.931,-0.9313,-0.9335,-0.9337,-0.9321,-0.9328,-0.9342,-0.9312,-0.9335,-0.9332,-0.9308,-0.9301,-0.9296,-0.9294,-0.9373,0,0,0,0,0,-0.9258,-0.9253,-0.9271,-0.9254,-0.9256,-0.9274,-0.9273,-0.9286,-0.9293,-0.9295,-0.9305,-0.931,-0.9307,-0.9305,-0.9303,-0.9282,-0.9284,-0.927,-0.9264,-0.926,-0.9256,-0.9244,-0.9238,-0.9308,-0.9308,-0.9308,0,0,-0.9236,-0.9246,-0.9242,-0.9246,-0.9252,-0.9246,-0.9276,-0.9268,-0.9264,-0.9294,-0.9282,-0.929,-0.9297,-0.9279,-0.9272,-0.9284,-0.9238,-0.9256,-0.9252,-0.9251,-0.9241,-0.9234,-0.9228,-0.9306,-0.9306,-0.9306,0,0,-0.9192,-0.92,-0.9186,-0.9191,-0.92,-0.9213,-0.9209,-0.9223,-0.9229,-0.9218,-0.924,-0.9235,-0.923,-0.9234,-0.9236,-0.9194,-0.921,-0.9193,-0.9164,-0.9152,-0.9147,-0.9142,-0.9126,-0.912,-0.919,-0.919,-0.919,0,-0.9162,-0.9155,-0.9176,-0.9167,-0.9168,-0.9196,-0.9182,-0.9186,-0.9194,-0.9194,-0.9207,-0.9202,-0.9209,-0.9192,-0.9182,-0.9183,-0.9179,-0.9191,-0.9146,-0.9141,-0.9137,-0.9122,-0.9116,-0.9188,-0.9188,-0.9188,-0.9188,0,-0.9118,-0.9113,-0.91,-0.9107,-0.9107,-0.9096,-0.9115,-0.9112,-0.9126,-0.9137,-0.9125,-0.9135,-0.9135,-0.9133,-0.9146,-0.9118,-0.9125,-0.9142,-0.9165,-0.9128,-0.9114,-0.9108,-0.9184,-0.9185,-0.9186,-0.9187,0,0,-0.9048,-0.9068,-0.9063,-0.9066,-0.9079,-0.9074,-0.9064,-0.9066,-0.9062,-0.9067,-0.9058,-0.9054,-0.907,-0.9071,-0.9086,-0.9076,-0.9041,-0.9094,-0.9094,-0.9082,-0.9009,-0.8994,-0.8987,-0.9052,-0.9051,-0.9051,-0.9008,0,-0.9005,-0.8989,-0.9008,-0.8988,-0.8982,-0.901,-0.9001,-0.9007,-0.9017,-0.9014,-0.9025,-0.9021,-0.9043,-0.9044,-0.9036,-0.9047,-0.9026,-0.905,-0.9043,-0.9043,-0.9038,-0.898,-0.8965,-0.8924,-0.9002,-0.9002,-0.9001,0,-0.8953,-0.8956,-0.8934,-0.8948,-0.8947,-0.8938,-0.8941,-0.8938,-0.8946,-0.8954,-0.8956,-0.8974,-0.8964,-0.8988,-0.8975,-0.8991,-0.899,-0.8995,-0.8994,-0.8992,-0.9018,-0.8975,-0.8911,-0.8904,-0.8993,-0.8994,-0.8994,0,-0.8902,-0.8901,-0.8888,-0.889,-0.8906,-0.8899,-0.8905,-0.8915,-0.8914,-0.8917,-0.8916,-0.8918,-0.8918,-0.8918,-0.8935,-0.8952,-0.8919,-0.8945,-0.8925,-0.8924,-0.8915,-0.8915,-0.8848,-0.8917,-0.8917,-0.8917,-0.8917,0,-0.8851,-0.8837,-0.8865,-0.8856,-0.8841,-0.8864,-0.8848,-0.8857,-0.8865,-0.8858,-0.8883,-0.8876,-0.89,-0.8896,-0.891,-0.8896,-0.8896,-0.8902,-0.8905,-0.8898,-0.8897,-0.8896,-0.8899,-0.8916,-0.8916,-0.8916,-0.8917,0,-0.879,-0.8809,-0.8796,-0.8813,-0.8817,-0.8804,-0.8819,-0.8811,-0.8824,-0.8815,-0.8815,-0.8834,-0.883,-0.8849,-0.8848,-0.8857,-0.8836,-0.8845,-0.8833,-0.8835,-0.8813,-0.8814,-0.8741,-0.8732,-0.8809,-0.8808,-0.8807,0,-0.8756,-0.8745,-0.8761,-0.8759,-0.8764,-0.876,-0.876,-0.8783,-0.8781,-0.879,-0.8781,-0.878,-0.878,-0.8773,-0.8786,-0.8786,-0.8794,-0.8769,-0.8794,-0.8788,-0.8792,-0.8791,-0.879,-0.8763,-0.8762,-0.8761,-0.876,0,-0.8692,-0.8701,-0.8701,-0.8703,-0.8702,-0.8705,-0.8709,-0.8706,-0.873,-0.8727,-0.8724,-0.8724,-0.8724,-0.8722,-0.8725,-0.8731,-0.8749,-0.8753,-0.8748,-0.8739,-0.8732,-0.8734,-0.8816,-0.8754,-0.8754,-0.8755,-0.8755,-0.8755,-0.8642,-0.8633,-0.8643,-0.8641,-0.8647,-0.8651,-0.8645,-0.8657,-0.8655,-0.8657,-0.8671,-0.8665,-0.8673,-0.8679,-0.8683,-0.8679,-0.8691,-0.8684,-0.8681,-0.8679,-0.8674,-0.8735,-0.8679,-0.868,-0.868,-0.868,-0.868,0,-0.8577,-0.8585,-0.8583,-0.8589,-0.8587,-0.8606,-0.8612,-0.8609,-0.8604,-0.8611,-0.8611,-0.8607,-0.8605,-0.8619,-0.8619,-0.8613,-0.8621,-0.8612,-0.8611,-0.8612,-0.8664,-0.8668,-0.8605,-0.8605,-0.8605,-0.8605,-0.8605,-0.8605,-0.8543,-0.853,-0.8541,-0.8531,-0.8539,-0.8534,-0.8536,-0.8539,-0.8544,-0.8539,-0.8538,-0.8548,-0.8557,-0.8558,-0.8557,-0.8562,-0.856,-0.8547,-0.8554,-0.8602,-0.8609,-0.8616,-0.8619,-0.8547,-0.8547,-0.8502,-0.8502,-0.8501]}]]